TimePDT,TemperatureF,Dew PointF,Humidity,Sea Level PressureIn,VisibilityMPH,Wind Direction,Wind SpeedMPH,Gust SpeedMPH,PrecipitationIn,Events,Conditions,WindDirDegrees,DateUTC
12:15 AM,35.6,24.8,65,30.14,10.0,South,5.8,-,N/A,,Clear,190,2014-03-13 07:15:00
12:35 AM,35.6,24.8,65,30.14,10.0,Calm,Calm,-,N/A,,Clear,0,2014-03-13 07:35:00
12:55 AM,32.0,24.8,75,30.14,10.0,West,3.5,-,N/A,,Clear,260,2014-03-13 07:55:00
1:15 AM,33.8,24.8,70,30.14,10.0,Calm,Calm,-,N/A,,Clear,0,2014-03-13 08:15:00
1:35 AM,37.4,24.8,60,30.14,10.0,SW,6.9,-,N/A,,Clear,220,2014-03-13 08:35:00
1:55 AM,37.4,24.8,60,30.13,10.0,South,4.6,-,N/A,,Clear,190,2014-03-13 08:55:00
2:15 AM,35.6,24.8,65,30.13,10.0,SW,3.5,-,N/A,,Clear,230,2014-03-13 09:15:00
2:35 AM,35.6,24.8,65,30.12,10.0,South,5.8,-,N/A,,Clear,180,2014-03-13 09:35:00
2:55 AM,35.6,24.8,65,30.12,10.0,South,4.6,-,N/A,,Clear,190,2014-03-13 09:55:00
3:15 AM,37.4,26.6,65,30.11,10.0,SW,6.9,-,N/A,,Clear,220,2014-03-13 10:15:00
3:35 AM,37.4,26.6,65,30.11,10.0,SW,8.1,-,N/A,,Clear,220,2014-03-13 10:35:00
3:55 AM,35.6,24.8,65,30.10,10.0,SSW,6.9,-,N/A,,Clear,210,2014-03-13 10:55:00
4:15 AM,35.6,24.8,65,30.11,10.0,SSW,6.9,-,N/A,,Clear,200,2014-03-13 11:15:00
4:35 AM,37.4,24.8,60,30.11,10.0,South,6.9,-,N/A,,Clear,180,2014-03-13 11:35:00
4:55 AM,33.8,24.8,70,30.11,10.0,SSE,5.8,-,N/A,,Clear,150,2014-03-13 11:55:00
5:15 AM,33.8,23.0,65,30.12,10.0,SE,5.8,-,N/A,,Clear,130,2014-03-13 12:15:00
5:35 AM,32.0,23.0,69,30.12,10.0,South,6.9,-,N/A,,Clear,170,2014-03-13 12:35:00
5:55 AM,32.0,23.0,69,30.12,10.0,SE,6.9,-,N/A,,Clear,140,2014-03-13 12:55:00
6:15 AM,32.0,23.0,69,30.12,10.0,South,5.8,-,N/A,,Clear,180,2014-03-13 13:15:00
6:35 AM,32.0,24.8,75,30.11,10.0,South,8.1,-,N/A,,Clear,190,2014-03-13 13:35:00
6:55 AM,32.0,24.8,75,30.11,10.0,SSW,9.2,-,N/A,,Clear,210,2014-03-13 13:55:00
7:15 AM,32.0,23.0,69,30.11,10.0,South,6.9,-,N/A,,Clear,180,2014-03-13 14:15:00
7:35 AM,32.0,23.0,69,30.11,10.0,South,8.1,-,N/A,,Clear,180,2014-03-13 14:35:00
7:55 AM,33.8,23.0,65,30.11,10.0,South,5.8,-,N/A,,Clear,170,2014-03-13 14:55:00
8:15 AM,37.4,24.8,60,30.11,10.0,South,5.8,-,N/A,,Clear,180,2014-03-13 15:15:00
8:35 AM,37.4,24.8,60,30.11,10.0,South,6.9,-,N/A,,Clear,180,2014-03-13 15:35:00
8:55 AM,39.2,24.8,56,30.11,10.0,South,9.2,-,N/A,,Clear,190,2014-03-13 15:55:00
9:15 AM,41.0,24.8,53,30.11,10.0,SW,12.7,-,N/A,,Clear,220,2014-03-13 16:15:00
9:35 AM,42.8,24.8,49,30.12,10.0,SSW,6.9,-,N/A,,Clear,200,2014-03-13 16:35:00
9:55 AM,44.6,24.8,46,30.12,10.0,SSW,4.6,-,N/A,,Clear,210,2014-03-13 16:55:00
10:15 AM,46.4,24.8,43,30.11,10.0,SSW,4.6,-,N/A,,Clear,210,2014-03-13 17:15:00
10:35 AM,48.2,24.8,40,30.11,10.0,South,3.5,-,N/A,,Clear,170,2014-03-13 17:35:00
10:55 AM,50.0,24.8,37,30.10,10.0,SSW,4.6,-,N/A,,Clear,200,2014-03-13 17:55:00
11:15 AM,53.6,24.8,33,30.10,10.0,Calm,Calm,-,N/A,,Clear,0,2014-03-13 18:15:00
11:35 AM,53.6,24.8,33,30.09,10.0,Calm,Calm,-,N/A,,Clear,0,2014-03-13 18:35:00
11:55 AM,53.6,19.4,26,30.10,10.0,Calm,Calm,-,N/A,,Clear,0,2014-03-13 18:55:00
12:15 PM,55.4,24.8,31,30.08,10.0,East,3.5,-,N/A,,Clear,80,2014-03-13 19:15:00
12:35 PM,55.4,24.8,31,30.07,10.0,Calm,Calm,-,N/A,,Clear,0,2014-03-13 19:35:00
12:55 PM,55.4,23.0,29,30.07,10.0,Calm,Calm,-,N/A,,Clear,0,2014-03-13 19:55:00
1:15 PM,55.4,19.4,25,30.07,10.0,North,8.1,-,N/A,,Clear,360,2014-03-13 20:15:00
1:35 PM,57.2,19.4,23,30.07,10.0,North,6.9,-,N/A,,Clear,360,2014-03-13 20:35:00
1:55 PM,57.2,21.2,25,30.06,10.0,ENE,6.9,-,N/A,,Clear,60,2014-03-13 20:55:00
2:15 PM,57.2,21.2,25,30.05,10.0,NNE,9.2,-,N/A,,Clear,20,2014-03-13 21:15:00
2:35 PM,57.2,21.2,25,30.05,10.0,NNW,8.1,-,N/A,,Clear,340,2014-03-13 21:35:00
2:55 PM,59.0,21.2,23,30.04,10.0,North,8.1,-,N/A,,Clear,350,2014-03-13 21:55:00
3:15 PM,59.0,19.4,22,30.04,10.0,Calm,Calm,-,N/A,,Clear,0,2014-03-13 22:15:00
3:35 PM,59.0,21.2,23,30.03,10.0,North,5.8,-,N/A,,Clear,350,2014-03-13 22:35:00
3:55 PM,59.0,23.0,25,30.03,10.0,North,6.9,-,N/A,,Clear,10,2014-03-13 22:55:00
4:15 PM,59.0,23.0,25,30.02,10.0,North,6.9,-,N/A,,Clear,360,2014-03-13 23:15:00
4:35 PM,59.0,23.0,25,30.02,10.0,NNE,5.8,-,N/A,,Clear,30,2014-03-13 23:35:00
4:55 PM,59.0,21.2,23,30.01,10.0,North,9.2,-,N/A,,Clear,350,2014-03-13 23:55:00
5:15 PM,59.0,21.2,23,30.01,10.0,North,9.2,-,N/A,,Clear,350,2014-03-14 00:15:00
5:35 PM,59.0,21.2,23,30.01,10.0,NNW,9.2,-,N/A,,Clear,340,2014-03-14 00:35:00
5:55 PM,57.2,23.0,27,30.02,10.0,NNW,10.4,17.3,N/A,,Clear,340,2014-03-14 00:55:00
6:15 PM,53.6,24.8,33,30.02,10.0,NNW,9.2,-,N/A,,Clear,340,2014-03-14 01:15:00
6:35 PM,53.6,26.6,35,30.03,10.0,NNW,5.8,-,N/A,,Clear,340,2014-03-14 01:35:00
6:55 PM,50.0,26.6,40,30.04,10.0,North,4.6,-,N/A,,Clear,360,2014-03-14 01:55:00
7:15 PM,50.0,26.6,40,30.04,10.0,North,5.8,-,N/A,,Clear,350,2014-03-14 02:15:00
7:35 PM,48.2,26.6,43,30.04,10.0,Calm,Calm,-,N/A,,Clear,0,2014-03-14 02:35:00
7:55 PM,46.4,28.4,50,30.04,10.0,Calm,Calm,-,N/A,,Clear,0,2014-03-14 02:55:00
8:15 PM,46.4,28.4,50,30.05,10.0,Calm,Calm,-,N/A,,Clear,0,2014-03-14 03:15:00
8:35 PM,44.6,28.4,53,30.05,10.0,Calm,Calm,-,N/A,,Clear,0,2014-03-14 03:35:00
8:55 PM,44.6,30.2,57,30.05,10.0,ESE,4.6,-,N/A,,Clear,110,2014-03-14 03:55:00
9:15 PM,42.8,30.2,61,30.05,10.0,Calm,Calm,-,N/A,,Clear,0,2014-03-14 04:15:00
9:35 PM,41.0,30.2,65,30.04,10.0,SSE,4.6,-,N/A,,Clear,150,2014-03-14 04:35:00
9:55 PM,44.6,30.2,57,30.05,10.0,SE,3.5,-,N/A,,Partly Cloudy,140,2014-03-14 04:55:00
10:15 PM,42.8,32.0,66,30.05,10.0,Calm,Calm,-,N/A,,Clear,0,2014-03-14 05:15:00
10:35 PM,41.0,32.0,70,30.06,10.0,Calm,Calm,-,N/A,,Clear,0,2014-03-14 05:35:00
10:55 PM,44.6,30.2,57,30.07,10.0,Calm,Calm,-,N/A,,Clear,0,2014-03-14 05:55:00
11:15 PM,44.6,30.2,57,30.07,10.0,Calm,Calm,-,N/A,,Mostly Cloudy,0,2014-03-14 06:15:00
11:35 PM,44.6,32.0,61,30.07,10.0,Calm,Calm,-,N/A,,Overcast,0,2014-03-14 06:35:00
11:55 PM,44.6,30.2,57,30.07,10.0,Calm,Calm,-,N/A,,Overcast,0,2014-03-14 06:55:00